Terminal Aerodrome Forecast
Issued by NWS Austin/San Antonio, TX

Home | Current Version | Previous Version | Text Only | Print | Product List | Glossary On
Versions: 1 2 3 4 5 6 7 8 9 10 11 12 13 14 15 16 17 18 19 20 21
000
FTUS44 KEWX 222300
TAFSAT
TAF
KSAT 222320Z 2300/2406 10007KT P6SM FEW070 SCT250
     FM230800 18005KT P6SM FEW012 SCT250
      TEMPO 2310/2313 BKN012=

USA.gov is the U.S. government's official web portal to all federal, state and local government web resources and services.